Location: Holcomb Observatory and Planetarium
(39.8415°N, 86.1714°W)
Time: 13:30:14
(UTC-05:00)

Hubble Space Telescope - Visible Passes

Search period start: 30 January 2015 00:00
Search period end: 09 February 2015 00:00
Orbit: 544 x 548 km, 28.5° (Epoch: 30 January)

Date Brightness Start Highest point End Pass type
(mag) Time Alt. Az. Time Alt. Az. Time Alt. Az.
30 Jan 2.9 19:43:44 10° SSW 19:46:18 16° S 19:47:07 15° SSE visible
31 Jan 2.9 19:35:30 10° SW 19:38:11 17° S 19:39:39 14° SSE visible
01 Feb 3.0 19:27:20 10° SW 19:30:05 17° S 19:32:12 12° SE visible
02 Feb 3.0 19:19:13 10° SW 19:21:58 17° S 19:24:42 10° SE visible
03 Feb 3.1 19:11:10 10° SW 19:13:50 16° S 19:16:30 10° SE visible
04 Feb 3.2 19:03:10 10° SW 19:05:42 16° S 19:08:13 10° SSE visible
05 Feb 3.3 18:55:15 10° SW 18:57:33 14° S 18:59:48 10° SSE visible
06 Feb 3.5 18:47:30 10° SW 18:49:23 13° SSW 18:51:14 10° SSE visible
07 Feb 3.6 18:40:02 10° SSW 18:41:13 11° SSW 18:42:19 10° S visible
